Probability
0 0 0 0 0 0 0 0 0 0 0 0 0 0 0 0 0 0 0 0 0 0 0 0 0 0 0 0 0 0 0 0 0 0 0 0 0 0 0 0 0 0 0
0 0 0 0 0 0 0 0 0 0 0 0 0 0 0 0 0 0 0 0 0 0 0 0 0 0 0 0 0 0 0 0 0 0 0 0 0 0 0 0 0 0 0
0 0 0 0 0 0 0 0 0 0 0 0 0 0 0 0 0 0 0 0 0 0 0 0 0 0 0 0 0 0 0 0 0 0 0 0 0 0 0 0 0 0 0
0 0 0 0 0 0 0 0 0 0 0 0 0 0 0 0 0 0 0 0 0 0 0 0 0 0 0 0 0 0 0 0 0 0 0 0 0 0 0 0 0 0 0
0 0 0 0 0 0 0 0 0 0 0 0 0 0 0 0 0 0 0 0 0 0 0 0 0 0 0 0 0 0 0 0 0 0 0 0 0 0 0 0 0 0 0
0 0 0 0 0 0 0 0 0 0 0 0 0 0 0 0 0 0 0 0 0 0 0 0 0 0 0 0 0 0 0 0 0 0 0 0 0 0 0 0 0 0 0
0 0 0 0 0 0 0 0 0 0 0 0 0 0 0 0 0 0 0 0 0 0 0 0 0 0 0 0 0 0 0 0 0 0 0 0 0 0 0 0 0 0 0
0 0 0 0 0 0 0 0 0 0 0 0 0 0 0 0 0 0 0 0 0 0 0 0 0 0 0 0 0 0 0 0 0 0 0 0 0 0 0 0 0 0 0
0 0 0 0 0 0 0 0 0 0 0 0 0 0 0 0 0 0 0 0 0 0 0 0 0 0 0 0 0 0 0 0 0 0 0 0 0 0 0 0 0 0 0
0 0 0 0 0 0 0 0 0 0 0 0 0 0 0 0 0 0 0 0 0 0 0 0 0 0 0 0 0 0 0 0 0 0 0 0 0 0 0 0 0 0 0
0 0 0 0 0 0 0 0 0 0 0 0 0 0 0 0 0 0 0 0 0 0 0 0 0 0 0 0 0 0 0 0 0 0 0 0 0 0 0 0 0 0 0
0 0 0 0 0 0 0 0 0 0 0 0 0 0 0 0 0 0 0 0 0 0 0 0 0 0 0 0 0 0 0 0 0 0 0 0 0 0 0 0 0 0 0
0 0 0 0 0 0 0 0 0 0 0 0 0 0 0 0 0 0 0 0 0 0 0 0 0 0 0 0 0 0 0 0 0 0 0 0 0 0 0 0 0 0 0
0 0 0 0 0 0 0 0 0 0 0 0 0 0 0 0 0 0 0 0 0 0 0 0 0 0 0 0 0 0 0 0 0 0 0 0 0 0 0 0 0 0 0
0 0 0 0 0 0 0 0 0 0 0 0 0 0 0 0 0 0 0 0 0 0 0 0 0 0 0 0 0 0 0 0 0 0 0 0 0 0 0 0 0 0 0
0 0 0 0 0 0 0 0 0 0 0 0 0 0 0 0 0 0 0 0 0 0 0 0 0 0 0 0 0 0 0 0 0 0 0 0 0 0 0 0 0 0 0
0 0 0 0 0 0 0 0 0 0 0 0 0 0 0 0 0 0 0 0 0 0 0 0 0 0 0 0 0 0 0 0 0 0 0 0 0 0 0 0 0 0 0
0 0 0 0 0 0 0 0 0 0 0 0 0 0 0 0 0 0 0 0 0 0 0 0 0 0 0 0 0 0 0 0 0 0 0 0 0 0 0 0 0 0 0
0 0 0 0 0 0 0 0 0 0 0 0 0 0 0 0 0 0 0 0 0 0 0 0 0 0 0 0 0 0 0 0 0 0 0 0 0 0 0 0 0 0 0
0 0 0 0 0 0 0 0 0 0 0 0 0 0 0 0 0 0 0 0 0 0 0 0 0 0 0 0 0 0 0 0 0 0 0 0 0 0 0 0 0 0 0
0 0 0 0 0 0 0 0 0 0 0 0 0 0 0 0 0 0 0 0 0 0 0 0 0 0 0 0 0 0 0 0 0 0 0 0 0 0 0 0 0 0 0
0 0 0 0 0 0 0 0 0 0 0 0 0 0 0 0 0 0 0 0 0 0 0 0 0 0 0 0 0 0 0 0 0 0 0 0 0 0 0 0 0 0 0
0 0 0 0 0 0 0 0 0 0 0 0 0 0 0 0 0 0 0 0 0 0 0 0 0 0 0 0 0 0 0 0 0 0 0 0 0 0 0 0 0 0 0
0 0 0 0 0 0 0 0 0 0 0 0 0 0 0 0 0 0 0 0 0 0 0 0 0 0 0 0 0 0 0 0 0 0 0 0 0 0 0 0 0 0 0
0 0 0 0 0 0 0 0 0 0 0 0 0 0 0 0 0 0 0 0 0 0 0 0 0 0 0 0 0 0 0 0 0 0 0 0 0 0 0 0 0 0 0
0 0 0 0 0 0 0 0 0 0 0 0 0 0 0 0 0 0 0 0 0 0 0 0 0 0 0 0 0 0 0 0 0 0 0 0 0 0 0 0 0 0 0
Wind_Speed
13 13 13 13 14 13 13 14 13 11 12 13 13 14 14 14 14 14 14 12 14 13 11 12 13 10 9 8 7 7 7 6 5 2 2 4 6 7 6 5 5 5 4
11 11 12 11 11 12 13 13 11 12 11 12 12 13 14 14 14 15 15 14 14 14 13 12 13 9 11 9 7 8 7 6 5 5 3 4 4 7 6 6 4 4 3
8 9 9 10 11 12 12 11 10 10 10 11 12 13 13 13 13 14 14 13 14 14 13 13 12 11 11 8 8 8 6 5 4 5 4 3 3 4 4 3 3 2 3
7 8 9 10 11 10 9 9 9 9 10 10 11 12 12 12 12 12 12 12 12 11 11 11 11 11 11 10 8 8 6 6 5 5 5 4 3 4 4 4 3 3 3
7 8 9 8 7 7 7 8 8 8 9 9 9 9 9 9 9 10 11 11 11 10 8 8 8 9 10 9 8 8 8 7 6 6 5 5 4 5 6 5 4 3 2
7 8 6 6 6 7 7 6 7 7 7 7 8 8 8 7 9 13 11 9 8 8 8 7 6 7 8 10 10 11 12 10 9 7 5 6 7 6 5 5 5 4 3
7 6 6 6 6 6 5 6 6 6 6 6 6 6 7 7 10 11 12 8 7 7 7 6 4 4 6 5 7 7 7 9 10 8 8 8 8 8 8 7 6 5 3
6 6 6 6 6 5 5 6 6 4 5 5 5 5 5 5 8 10 10 6 5 5 5 6 7 6 6 8 7 6 4 3 4 4 5 5 6 8 8 7 6 4 3
7 7 7 7 7 6 7 6 5 4 4 4 4 5 5 4 7 9 9 4 4 4 4 5 6 7 11 13 10 8 6 4 5 8 8 8 11 12 10 7 6 4 2
8 7 6 7 7 7 7 5 4 4 4 4 4 3 4 4 7 9 9 5 5 4 4 4 6 8 12 13 10 9 8 6 7 7 8 9 8 9 10 6 6 5 3
5 5 5 6 7 6 5 4 5 4 5 4 4 3 3 4 6 9 9 5 6 6 5 4 5 11 13 13 10 7 10 10 8 8 7 6 5 4 4 3 3 3 4
5 5 5 5 5 5 6 5 5 6 6 5 4 3 2 2 4 7 9 8 7 6 5 5 6 12 12 11 8 10 14 11 7 6 6 5 4 4 3 4 4 4 3
5 5 5 5 5 5 6 7 6 5 5 5 4 4 3 2 3 6 7 9 9 5 5 9 11 13 11 8 11 13 10 7 7 6 5 4 4 4 5 4 4 4 4
6 6 5 6 6 5 4 5 5 6 6 5 5 5 4 3 3 4 4 5 7 7 7 8 12 12 9 9 8 7 5 5 5 5 5 4 4 4 3 3 3 2 2
6 6 6 5 6 5 4 4 4 3 5 6 6 6 6 6 6 9 7 6 6 7 8 6 5 6 5 5 4 4 4 4 4 4 5 5 4 4 3 3 2 2 2
6 6 5 5 5 5 5 4 5 5 6 7 7 6 4 6 11 12 12 12 13 15 9 6 6 6 6 6 6 5 4 4 4 4 5 5 5 5 4 3 2 3 2
6 6 5 5 5 5 5 6 6 6 8 8 8 9 8 10 12 13 14 14 14 14 6 6 6 6 5 5 5 5 4 4 4 4 4 4 4 4 4 4 3 3 2
4 5 5 5 5 5 5 5 5 6 5 4 5 8 9 10 11 13 14 12 8 6 4 5 5 5 5 5 5 4 4 4 4 4 4 4 4 4 4 4 4 4 3
3 3 4 4 5 5 5 5 5 6 5 5 4 4 6 8 9 10 10 5 6 5 4 4 4 4 4 4 4 4 4 4 4 4 4 4 4 4 4 4 4 4 3
3 5 5 5 5 5 5 5 5 5 5 5 4 3 3 4 4 4 4 3 4 4 4 4 4 4 4 4 4 4 4 4 4 4 4 4 4 4 4 5 4 4 3
3 4 6 5 4 5 5 5 5 5 5 5 3 4 7 4 4 4 4 3 3 4 4 4 3 3 3 3 3 4 4 4 4 4 4 4 4 3 3 4 4 4 3
3 4 4 4 4 4 5 5 5 5 5 6 4 4 7 5 4 4 4 3 3 3 3 3 3 3 3 3 4 4 4 4 3 3 3 3 4 4 3 3 3 3 3
4 5 5 5 5 6 6 5 5 5 5 5 4 4 4 4 4 4 4 3 3 3 3 3 3 3 2 2 2 3 4 4 4 5 5 4 4 4 4 4 5 4 4
4 5 5 5 5 5 5 5 5 5 5 4 4 4 4 3 3 4 3 3 3 2 2 2 3 4 4 3 2 2 2 3 3 4 6 5 5 4 4 3 4 4 4
5 5 5 5 5 5 5 5 5 4 4 4 4 3 3 3 3 3 3 3 3 3 2 2 2 3 4 4 3 3 3 4 4 4 4 4 5 5 5 4 4 4 4
5 6 5 5 4 4 4 4 4 4 4 3 3 3 3 3 3 2 2 2 2 2 2 2 2 3 3 3 4 4 5 5 6 7 5 5 5 5 5 4 5 4 4
Wind_Direction
212 211 213 214 214 215 216 216 215 212 206 206 206 208 211 213 214 217 221 218 221 224 220 221 225 219 217 215 211 211 215 208 217 175 137 146 162 169 167 165 168 176 188
212 209 212 213 210 212 217 217 212 211 208 208 206 209 212 214 213 216 220 220 221 222 220 219 223 217 217 214 209 210 210 198 191 189 163 158 170 173 164 166 174 180 186
208 206 208 208 208 213 216 214 210 209 207 205 206 211 213 214 214 216 218 219 220 221 219 218 218 212 217 212 205 205 201 189 178 166 162 150 143 154 150 153 167 175 187
204 206 210 211 210 212 211 208 207 205 205 206 208 212 214 213 213 212 214 217 220 220 218 218 214 211 213 207 203 200 186 174 164 154 151 146 139 139 147 163 182 187 196
202 209 215 210 205 203 203 202 200 202 205 205 206 210 210 210 211 208 209 213 215 216 214 215 213 208 209 202 195 190 178 174 164 160 159 149 156 163 184 174 179 163 190
204 214 209 198 197 199 199 194 193 197 198 197 202 204 207 210 205 202 202 206 207 207 207 205 201 197 198 198 193 185 179 176 175 173 173 173 181 180 162 161 157 158 203
202 206 196 189 193 196 189 187 194 197 193 196 200 200 206 206 199 198 198 197 198 202 198 189 184 179 174 168 164 163 175 181 175 172 171 181 177 177 163 163 175 176 183
201 200 190 182 188 184 181 191 191 183 184 190 193 193 194 196 188 187 184 188 186 185 180 173 169 164 164 153 141 139 141 149 166 161 163 168 164 158 163 161 155 125 83
205 202 193 182 181 183 189 190 184 175 178 177 173 178 182 184 176 169 160 153 155 156 150 155 158 160 163 155 146 144 134 116 104 115 119 126 135 141 142 128 133 137 163
210 203 190 178 177 185 189 182 171 165 169 159 156 161 167 169 166 163 157 149 150 147 138 142 154 158 161 159 153 151 150 144 130 115 109 112 119 138 147 151 155 153 150
192 181 178 176 176 174 169 166 158 157 153 152 147 142 148 156 160 161 158 153 157 154 154 154 155 159 160 161 156 153 153 141 135 128 120 113 108 114 122 117 126 145 154
171 171 175 169 162 160 159 160 157 156 155 156 150 143 133 139 151 160 161 157 152 154 158 152 151 156 156 152 145 140 137 131 128 128 129 136 143 142 127 113 103 85 83
164 169 167 160 160 160 163 164 161 161 163 165 163 164 151 136 137 143 150 150 146 133 135 143 144 146 142 135 135 136 132 134 138 143 152 157 150 139 127 113 95 87 76
168 168 163 161 162 161 163 165 167 170 170 168 171 169 156 148 149 145 140 135 130 121 120 128 131 132 123 119 128 129 130 141 146 150 143 134 128 130 134 135 138 132 118
166 166 162 163 163 161 159 162 166 172 177 173 175 167 165 173 177 165 154 149 144 138 130 123 126 132 130 129 127 129 132 136 135 137 140 143 146 146 147 140 139 143 162
167 167 164 163 159 157 150 128 109 122 128 134 136 140 138 146 153 159 156 151 147 145 134 143 149 151 155 156 156 150 148 151 150 147 149 155 160 162 158 149 146 163 186
172 168 161 161 162 161 159 154 142 109 102 112 125 136 137 142 150 155 153 150 151 149 138 149 154 158 158 157 157 155 159 157 151 154 157 160 160 161 161 164 167 173 194
163 159 159 161 162 161 158 154 151 146 137 110 104 120 131 139 145 150 150 142 147 147 140 150 153 155 156 157 157 153 148 146 151 156 158 162 164 165 169 177 182 189 195
153 154 150 148 149 146 142 139 134 132 130 124 112 107 112 126 127 135 141 138 151 152 141 138 140 145 150 152 152 150 151 156 158 158 165 168 170 170 179 183 184 186 189
135 133 136 136 133 133 136 135 132 131 130 131 132 129 129 127 131 137 128 119 126 132 130 130 129 132 140 145 145 146 149 155 161 167 173 174 174 177 185 186 186 188 196
125 122 120 121 126 131 133 133 132 133 134 129 123 129 137 131 131 130 126 118 119 126 129 128 129 132 134 138 144 152 158 164 169 172 173 174 172 178 183 185 188 189 185
112 115 114 114 114 114 115 117 120 123 126 122 113 114 121 110 116 120 119 119 116 118 128 131 133 138 147 155 158 158 162 166 170 170 172 172 174 177 177 180 182 184 184
101 106 103 98 101 104 101 100 106 113 115 116 118 113 111 113 115 118 120 118 112 107 112 121 129 131 129 136 149 160 170 180 181 175 173 174 176 179 178 185 187 187 192
89 97 100 101 101 103 105 105 105 109 112 114 115 116 115 115 116 117 117 117 114 111 113 123 135 149 152 150 151 158 167 172 169 174 175 175 178 179 180 186 191 193 194
79 84 89 93 97 102 105 107 108 110 111 114 116 116 115 114 114 115 115 117 122 125 129 133 142 152 165 171 175 181 191 189 180 173 171 173 178 180 181 186 186 186 188
78 80 81 83 87 93 100 106 107 108 110 110 112 114 117 118 119 121 126 131 134 141 149 154 166 173 182 189 197 201 203 204 196 187 176 173 177 182 180 184 185 186 184